Location: Unspecified
(0.0000°N, 0.0000°E)
Time: 23:56:08
(UTC+00:00)

Vanguard 2 - Pass Details

Date: 02 October 2020
Orbit: 554 x 2937 km, 32.9° (Epoch: 28 October)

Event Time Altitude Azimuth Distance (km) Brightness Sun altitude
Rises 03:17:02 0° 272° (W) 6,054 - -38.0°
Reaches altitude 10° 03:23:51 10° 291° (WNW) 4,518 - -36.3°
Maximum altitude 03:30:02 15° 323° (NW) 3,517 - -34.7°
Exits shadow 03:34:25 11° 353° (N) 3,403 10.7 -33.6°
Drops below altitude 10° 03:34:58 10° 356° (N) 3,435 10.7 -33.5°
Sets 03:39:01 0° 19° (NNE) 3,969 11.4 -32.5°
